Regional Weather Roundup
Issued by NWS Little Rock, AR

Home | Current Version | Previous Version | Text Only | Print | Product List | Glossary On
Versions: 1 2 3 4 5 6 7 8 9 10 11 12 13 14 15 16 17 18 19 20 21 22 23 24 25 26 27 28 29 30 31
000
ASUS44 KLZK 161705
RWRLZK

WEATHER ROUNDUP FOR ARKANSAS
NATIONAL WEATHER SERVICE LITTLE ROCK AR
1100 AM CST TUE JAN 16 2018

NOTE: "FAIR" INDICATES FEW OR NO CLOUDS BELOW 12,000 FEET WITH NO
SIGNIFICANT WEATHER AND/OR OBSTRUCTIONS TO VISIBILITY.

ARZ001-003-010-029-161800-
NORTHWEST ARKANSAS

CITY           SKY/WX    TMP DP  RH WIND       PRES   REMARKS
FAYETTEVILLE   SUNNY      7  -5  57 NW9       30.75F WCI  -7
FORT SMITH     SUNNY     15  -4  42 N12G20    30.82F WCI   2
HARRISON       PTSUNNY    3  -4  72 NW12      30.71S WCI -13
ROGERS         SUNNY      6  -4  63 NW10      30.74F WCI  -9
SILOAM SPGS    PTSUNNY    7  -4  60 N13G18    30.78S WCI  -9
HIGHFILL       MOSUNNY    6  -5  60 NW9       30.75S WCI  -8
SPRINGDALE     MOSUNNY  N/A N/A N/A W13       30.76S
$$

ARZ004-005-016-161800-
NORTH CENTRAL ARKANSAS

CITY           SKY/WX    TMP DP  RH WIND       PRES   REMARKS
BATESVILLE     SUNNY     12  -2  53 NW9G20    30.74F WCI   0
FLIPPIN        MOSUNNY    9  -3  58 NW12      30.77F WCI  -6
MTN HOME       SUNNY      5  -4  66 VRB6      30.73S WCI  -6
$$

ARZ040-041-161800-
WEST CENTRAL ARKANSAS

CITY           SKY/WX    TMP DP  RH WIND       PRES   REMARKS
MENA           CLOUDY    18   5  57 NW10G16   30.72F WCI   6
MOUNT IDA      MOSUNNY   16   2  54 NW10      30.72S WCI   4
$$

ARZ009-017-025-026-028-161800-
NORTHEAST ARKANSAS

CITY           SKY/WX    TMP DP  RH WIND       PRES   REMARKS
JONESBORO      FAIR      12   1  61 N12       30.74S WCI  -2
NEWPORT        FAIR      13   0  56 NW13G22   30.76F WCI  -2
WALNUT RIDGE   FAIR      13  -2  51 NW14G21   30.74F WCI  -2
BLYTHEVILLE    FLURRIES  13   4  67 N12       30.73F WCI  -1
$$

ARZ022-023-033-042-044-161800-
CENTRAL ARKANSAS

CITY           SKY/WX    TMP DP  RH WIND       PRES   REMARKS
LITTLE ROCK    MOSUNNY   16   4  59 N10       30.77F WCI   4
JACKSONVILLE   SUNNY     16   0  49 NW13G21   30.75F WCI   2
SEARCY         FAIR      16   1  51 N8G16     30.77F WCI   5
HOT SPRINGS    SUNNY     19   4  51 N9        30.74F WCI   8
RUSSELLVILLE   SUNNY     14  -4  44 W10G18    30.77F WCI   1
CLINTON        FAIR      12  -6  44 NW10G18   30.76F WCI  -1
$$

ARZ036-161800-
EAST ARKANSAS

CITY           SKY/WX    TMP DP  RH WIND       PRES   REMARKS
WEST MEMPHIS   FAIR      12   2  64 N9G17     30.73S WCI   0
$$

ARZ050-053-066-070-073-161800-
SOUTHWEST ARKANSAS

CITY           SKY/WX    TMP DP  RH WIND       PRES   REMARKS
ARKADELPHIA    FAIR      23   9  55 NW8       30.78S WCI  14
CAMDEN         DRIZZLE   23   9  54 N10       30.75F WCI  12
TEXARKANA      SUNNY     19   4  51 N12       30.76F WCI   7
EL DORADO      CLOUDY    22  14  71 NW10G18   30.74S WCI  11
DE QUEEN       MOSUNNY   19   3  49 N7        30.78S WCI  10
$$

ARZ056-057-069-161800-
SOUTHEAST ARKANSAS

CITY           SKY/WX    TMP DP  RH WIND       PRES   REMARKS
PINE BLUFF     FAIR      13   2  61 N12       30.77S WCI  -1
STUTTGART      FAIR      13   1  59 N12       30.76F WCI  -1
MONTICELLO     FAIR      19   5  54 N8        30.73S WCI   9

$$






USA.gov is the U.S. government's official web portal to all federal, state and local government web resources and services.